"FRM_AIS_EDR_2074.DAT           ",2005-08-26T11:36:36.16 ,"1/0073136191.02942",    0,    0,  137447,"AIS","B1","B1","B1","B1","PISd",0,0,0,0,"B1", 0,15,   0, 0,    0,"AIS","N/A    ","OK ","OK ",    000288.305,    -006.132,    0092.172,    0014.950,    0046.302
"FRM_AIS_EDR_2074.DAT           ",2005-08-26T11:36:43.70 ,"1/0073136198.38542",    0,    1,  137447,"AIS","B1","B1","B1","B1","PISd",0,0,0,0,"B1", 0,15,   0, 0,    0,"AIS","N/A    ","OK ","OK ",    000288.318,    -005.631,    0092.171,    0014.953,    0046.575
"FRM_AIS_EDR_2074.DAT           ",2005-08-26T11:36:51.25 ,"1/0073136206.08605",    0,    2,  137447,"AIS","B1","B1","B1","B1","PISd",0,0,0,0,"B1", 0,15,   0, 0,    0,"AIS","N/A    ","OK ","OK ",    000288.435,    -005.131,    0092.170,    0014.954,    0046.851
"FRM_AIS_EDR_2074.DAT           ",2005-08-26T11:36:58.79 ,"1/0073136213.44204",    0,    3,  137447,"AIS","B1","B1","B1","B1","PISd",0,0,0,0,"B1", 0,15,   0, 0,    0,"AIS","N/A    ","OK ","OK ",    000288.659,    -004.630,    0092.170,    0014.956,    0047.130
"FRM_AIS_EDR_2074.DAT           ",2005-08-26T11:37:06.33 ,"1/0073136221.14268",    0,    4,  137447,"AIS","B1","B1","B1","B1","PISd",0,0,0,0,"B1", 0,15,   0, 0,    0,"AIS","N/A    ","OK ","OK ",    000288.987,    -004.129,    0092.169,    0014.958,    0047.412
"FRM_AIS_EDR_2074.DAT           ",2005-08-26T11:37:13.88 ,"1/0073136228.49867",    0,    5,  137447,"AIS","B1","B1","B1","B1","PISd",0,0,0,0,"B1", 0,15,   0, 0,    0,"AIS","N/A    ","OK ","OK ",    000289.421,    -003.629,    0092.168,    0014.960,    0047.696
"FRM_AIS_EDR_2074.DAT           ",2005-08-26T11:37:21.42 ,"1/0073136236.19930",    0,    6,  137447,"AIS","B1","B1","B1","B1","PISd",0,0,0,0,"B1", 0,15,   0, 0,    0,"AIS","N/A    ","OK ","OK ",    000289.961,    -003.129,    0092.167,    0014.962,    0047.984
"FRM_AIS_EDR_2074.DAT           ",2005-08-26T11:37:28.96 ,"1/0073136243.55530",    0,    7,  137447,"AIS","B1","B1","B1","B1","PISd",0,0,0,0,"B1", 0,15,   0, 0,    0,"AIS","N/A    ","OK ","OK ",    000290.605,    -002.628,    0092.166,    0014.964,    0048.274
"FRM_AIS_EDR_2074.DAT           ",2005-08-26T11:37:36.51 ,"1/0073136251.25593",    0,    8,  137447,"AIS","B1","B1","B1","B1","PISd",0,0,0,0,"B1", 0,15,   0, 0,    0,"AIS","N/A    ","OK ","OK ",    000291.355,    -002.129,    0092.165,    0014.966,    0048.566
"FRM_AIS_EDR_2074.DAT           ",2005-08-26T11:37:44.05 ,"1/0073136258.61192",    0,    9,  137447,"AIS","B1","B1","B1","B1","PISd",0,0,0,0,"B1", 0,15,   0, 0,    0,"AIS","N/A    ","OK ","OK ",    000292.210,    -001.629,    0092.163,    0014.968,    0048.861
"FRM_AIS_EDR_2074.DAT           ",2005-08-26T11:37:51.59 ,"1/0073136266.31256",    0,   10,  137447,"AIS","B1","B1","B1","B1","PISd",0,0,0,0,"B1", 0,15,   0, 0,    0,"AIS","N/A    ","OK ","OK ",    000293.170,    -001.129,    0092.162,    0014.970,    0049.159
"FRM_AIS_EDR_2074.DAT           ",2005-08-26T11:37:59.14 ,"1/0073136274.01319",    0,   11,  137447,"AIS","B1","B1","B1","B1","PISd",0,0,0,0,"B1", 0,15,   0, 0,    0,"AIS","N/A    ","OK ","OK ",    000294.234,    -000.630,    0092.161,    0014.972,    0049.459
"FRM_AIS_EDR_2074.DAT           ",2005-08-26T11:38:06.68 ,"1/0073136281.36918",    0,   12,  137447,"AIS","B1","B1","B1","B1","PISd",0,0,0,0,"B1", 0,15,   0, 0,    0,"AIS","N/A    ","OK ","OK ",    000295.403,    -000.131,    0092.160,    0014.974,    0049.761
"FRM_AIS_EDR_2074.DAT           ",2005-08-26T11:38:14.22 ,"1/0073136289.06982",    0,   13,  137447,"AIS","B1","B1","B1","B1","PISd",0,0,0,0,"B1", 0,15,   0, 0,    0,"AIS","N/A    ","OK ","OK ",    000296.677,    0000.368,    0092.159,    0014.976,    0050.065
"FRM_AIS_EDR_2074.DAT           ",2005-08-26T11:38:21.77 ,"1/0073136296.42581",    0,   14,  137447,"AIS","B1","B1","B1","B1","PISd",0,0,0,0,"B1", 0,15,   0, 0,    0,"AIS","N/A    ","OK ","OK ",    000298.055,    0000.866,    0092.158,    0014.978,    0050.372
"FRM_AIS_EDR_2074.DAT           ",2005-08-26T11:38:29.31 ,"1/0073136304.12644",    0,   15,  137447,"AIS","B1","B1","B1","B1","PISd",0,0,0,0,"B1", 0,15,   0, 0,    0,"AIS","N/A    ","OK ","OK ",    000299.537,    0001.364,    0092.156,    0014.980,    0050.680
"FRM_AIS_EDR_2074.DAT           ",2005-08-26T11:38:36.85 ,"1/0073136311.48244",    0,   16,  137447,"AIS","B1","B1","B1","B1","PISd",0,0,0,0,"B1", 0,15,   0, 0,    0,"AIS","N/A    ","OK ","OK ",    000301.123,    0001.861,    0092.155,    0014.982,    0050.991
"FRM_AIS_EDR_2074.DAT           ",2005-08-26T11:38:44.40 ,"1/0073136319.18307",    0,   17,  137447,"AIS","B1","B1","B1","B1","PISd",0,0,0,0,"B1", 0,15,   0, 0,    0,"AIS","N/A    ","OK ","OK ",    000302.813,    0002.358,    0092.154,    0014.984,    0051.303
"FRM_AIS_EDR_2074.DAT           ",2005-08-26T11:38:51.94 ,"1/0073136326.53906",    0,   18,  137447,"AIS","B1","B1","B1","B1","PISd",0,0,0,0,"B1", 0,15,   0, 0,    0,"AIS","N/A    ","OK ","OK ",    000304.606,    0002.855,    0092.153,    0014.986,    0051.618
"FRM_AIS_EDR_2074.DAT           ",2005-08-26T11:38:59.48 ,"1/0073136334.23970",    0,   19,  137447,"AIS","B1","B1","B1","B1","PISd",0,0,0,0,"B1", 0,15,   0, 0,    0,"AIS","N/A    ","OK ","OK ",    000306.503,    0003.351,    0092.151,    0014.988,    0051.934
"FRM_AIS_EDR_2074.DAT           ",2005-08-26T11:39:07.02 ,"1/0073136341.59569",    0,   20,  137447,"AIS","B1","B1","B1","B1","PISd",0,0,0,0,"B1", 0,15,   0, 0,    0,"AIS","N/A    ","OK ","OK ",    000308.502,    0003.846,    0092.150,    0014.990,    0052.252
"FRM_AIS_EDR_2074.DAT           ",2005-08-26T11:39:14.57 ,"1/0073136349.29632",    0,   21,  137447,"AIS","B1","B1","B1","B1","PISd",0,0,0,0,"B1", 0,15,   0, 0,    0,"AIS","N/A    ","OK ","OK ",    000310.604,    0004.341,    0092.149,    0014.992,    0052.571
"FRM_AIS_EDR_2074.DAT           ",2005-08-26T11:39:22.11 ,"1/0073136356.65232",    0,   22,  137447,"AIS","B1","B1","B1","B1","PISd",0,0,0,0,"B1", 0,15,   0, 0,    0,"AIS","N/A    ","OK ","OK ",    000312.809,    0004.836,    0092.147,    0014.994,    0052.893
"FRM_AIS_EDR_2074.DAT           ",2005-08-26T11:39:29.65 ,"1/0073136364.35295",    0,   23,  137447,"AIS","B1","B1","B1","B1","PISd",0,0,0,0,"B1", 0,15,   0, 0,    0,"AIS","N/A    ","OK ","OK ",    000315.116,    0005.330,    0092.146,    0014.996,    0053.215
"FRM_AIS_EDR_2074.DAT           ",2005-08-26T11:39:37.20 ,"1/0073136372.05358",    0,   24,  137447,"AIS","B1","B1","B1","B1","PISd",0,0,0,0,"B1", 0,15,   0, 0,    0,"AIS","N/A    ","OK ","OK ",    000317.525,    0005.823,    0092.145,    0014.998,    0053.540
"FRM_AIS_EDR_2074.DAT           ",2005-08-26T11:39:44.74 ,"1/0073136379.40958",    0,   25,  137447,"AIS","B1","B1","B1","B1","PISd",0,0,0,0,"B1", 0,15,   0, 0,    0,"AIS","N/A    ","OK ","OK ",    000320.035,    0006.315,    0092.144,    0014.999,    0053.865
"FRM_AIS_EDR_2074.DAT           ",2005-08-26T11:39:52.28 ,"1/0073136387.11021",    0,   26,  137447,"AIS","B1","B1","B1","B1","PISd",0,0,0,0,"B1", 0,15,   0, 0,    0,"AIS","N/A    ","OK ","OK ",    000322.646,    0006.807,    0092.143,    0015.001,    0054.192
"FRM_AIS_EDR_2074.DAT           ",2005-08-26T11:39:59.83 ,"1/0073136394.46620",    0,   27,  137447,"AIS","B1","B1","B1","B1","PISd",0,0,0,0,"B1", 0,15,   0, 0,    0,"AIS","N/A    ","OK ","OK ",    000325.359,    0007.298,    0092.141,    0015.003,    0054.521
"FRM_AIS_EDR_2074.DAT           ",2005-08-26T11:40:07.37 ,"1/0073136402.16684",    0,   28,  137447,"AIS","B1","B1","B1","B1","PISd",0,0,0,0,"B1", 0,15,   0, 0,    0,"AIS","N/A    ","OK ","OK ",    000328.171,    0007.789,    0092.140,    0015.005,    0054.850
"FRM_AIS_EDR_2074.DAT           ",2005-08-26T11:40:14.91 ,"1/0073136409.52283",    0,   29,  137447,"AIS","B1","B1","B1","B1","PISd",0,0,0,0,"B1", 0,15,   0, 0,    0,"AIS","N/A    ","OK ","OK ",    000331.084,    0008.279,    0092.139,    0015.007,    0055.181
"FRM_AIS_EDR_2074.DAT           ",2005-08-26T11:40:22.46 ,"1/0073136417.22346",    0,   30,  137447,"AIS","B1","B1","B1","B1","PISd",0,0,0,0,"B1", 0,15,   0, 0,    0,"AIS","N/A    ","OK ","OK ",    000334.096,    0008.768,    0092.138,    0015.009,    0055.513
"FRM_AIS_EDR_2074.DAT           ",2005-08-26T11:40:30.00 ,"1/0073136424.57946",    0,   31,  137447,"AIS","B1","B1","B1","B1","PISd",0,0,0,0,"B1", 0,15,   0, 0,    0,"AIS","N/A    ","OK ","OK ",    000337.208,    0009.256,    0092.137,    0015.011,    0055.846
"FRM_AIS_EDR_2074.DAT           ",2005-08-26T11:40:37.54 ,"1/0073136432.28009",    0,   32,  137447,"AIS","B1","B1","B1","B1","PISd",0,0,0,0,"B1", 0,15,   0, 0,    0,"AIS","N/A    ","OK ","OK ",    000340.419,    0009.743,    0092.136,    0015.013,    0056.180
"FRM_AIS_EDR_2074.DAT           ",2005-08-26T11:40:45.09 ,"1/0073136439.63608",    0,   33,  137447,"AIS","B1","B1","B1","B1","PISd",0,0,0,0,"B1", 0,15,   0, 0,    0,"AIS","N/A    ","OK ","OK ",    000343.728,    0010.230,    0092.135,    0015.015,    0056.514
"FRM_AIS_EDR_2074.DAT           ",2005-08-26T11:40:52.63 ,"1/0073136447.33672",    0,   34,  137447,"AIS","B1","B1","B1","B1","PISd",0,0,0,0,"B1", 0,15,   0, 0,    0,"AIS","N/A    ","OK ","OK ",    000347.135,    0010.715,    0092.134,    0015.017,    0056.850
"FRM_AIS_EDR_2074.DAT           ",2005-08-26T11:41:00.17 ,"1/0073136455.03735",    0,   35,  137447,"AIS","B1","B1","B1","B1","PISd",0,0,0,0,"B1", 0,15,   0, 0,    0,"AIS","N/A    ","OK ","OK ",    000350.639,    0011.200,    0092.133,    0015.019,    0057.187
"FRM_AIS_EDR_2074.DAT           ",2005-08-26T11:41:07.72 ,"1/0073136462.39334",    0,   36,  137447,"AIS","B1","B1","B1","B1","PISd",0,0,0,0,"B1", 0,15,   0, 0,    0,"AIS","N/A    ","OK ","OK ",    000354.241,    0011.684,    0092.132,    0015.021,    0057.524
"FRM_AIS_EDR_2074.DAT           ",2005-08-26T11:41:15.26 ,"1/0073136470.09398",    0,   37,  137447,"AIS","B1","B1","B1","B1","PISd",0,0,0,0,"B1", 0,15,   0, 0,    0,"AIS","N/A    ","OK ","OK ",    000357.939,    0012.167,    0092.131,    0015.023,    0057.862
"FRM_AIS_EDR_2074.DAT           ",2005-08-26T11:41:22.80 ,"1/0073136477.44997",    0,   38,  137447,"AIS","B1","B1","B1","B1","PISd",0,0,0,0,"B1", 0,15,   0, 0,    0,"AIS","N/A    ","OK ","OK ",    000361.734,    0012.649,    0092.130,    0015.025,    0058.201
"FRM_AIS_EDR_2074.DAT           ",2005-08-26T11:41:30.35 ,"1/0073136485.15060",    0,   39,  137447,"AIS","B1","B1","B1","B1","PISd",0,0,0,0,"B1", 0,15,   0, 0,    0,"AIS","N/A    ","OK ","OK ",    000365.624,    0013.130,    0092.129,    0015.027,    0058.540
"FRM_AIS_EDR_2074.DAT           ",2005-08-26T11:41:37.89 ,"1/0073136492.50660",    0,   40,  137447,"AIS","B1","B1","B1","B1","PISd",0,0,0,0,"B1", 0,15,   0, 0,    0,"AIS","N/A    ","OK ","OK ",    000369.609,    0013.610,    0092.129,    0015.029,    0058.880
"FRM_AIS_EDR_2074.DAT           ",2005-08-26T11:41:45.43 ,"1/0073136500.20723",    0,   41,  137447,"AIS","B1","B1","B1","B1","PISd",0,0,0,0,"B1", 0,15,   0, 0,    0,"AIS","N/A    ","OK ","OK ",    000373.689,    0014.089,    0092.128,    0015.031,    0059.220
"FRM_AIS_EDR_2074.DAT           ",2005-08-26T11:41:52.98 ,"1/0073136507.56322",    0,   42,  137447,"AIS","B1","B1","B1","B1","PISd",0,0,0,0,"B1", 0,15,   0, 0,    0,"AIS","N/A    ","OK ","OK ",    000377.863,    0014.567,    0092.127,    0015.033,    0059.561
"FRM_AIS_EDR_2074.DAT           ",2005-08-26T11:42:00.52 ,"1/0073136515.26386",    0,   43,  137447,"AIS","B1","B1","B1","B1","PISd",0,0,0,0,"B1", 0,15,   0, 0,    0,"AIS","N/A    ","OK ","OK ",    000382.131,    0015.044,    0092.127,    0015.035,    0059.902
"FRM_AIS_EDR_2074.DAT           ",2005-08-26T11:42:08.06 ,"1/0073136522.61985",    0,   44,  137447,"AIS","B1","B1","B1","B1","PISd",0,0,0,0,"B1", 0,15,   0, 0,    0,"AIS","N/A    ","OK ","OK ",    000386.492,    0015.520,    0092.127,    0015.037,    0060.244
"FRM_AIS_EDR_2074.DAT           ",2005-08-26T11:42:15.61 ,"1/0073136530.32048",    0,   45,  137447,"AIS","B1","B1","B1","B1","PISd",0,0,0,0,"B1", 0,15,   0, 0,    0,"AIS","N/A    ","OK ","OK ",    000390.946,    0015.994,    0092.126,    0015.039,    0060.586
"FRM_AIS_EDR_2074.DAT           ",2005-08-26T11:42:23.15 ,"1/0073136538.02112",    0,   46,  137447,"AIS","B1","B1","B1","B1","PISd",0,0,0,0,"B1", 0,15,   0, 0,    0,"AIS","N/A    ","OK ","OK ",    000395.491,    0016.468,    0092.126,    0015.041,    0060.928
"FRM_AIS_EDR_2074.DAT           ",2005-08-26T11:42:30.69 ,"1/0073136545.37711",    0,   47,  137447,"AIS","B1","B1","B1","B1","PISd",0,0,0,0,"B1", 0,15,   0, 0,    0,"AIS","N/A    ","OK ","OK ",    000400.128,    0016.941,    0092.126,    0015.043,    0061.271
"FRM_AIS_EDR_2074.DAT           ",2005-08-26T11:42:38.23 ,"1/0073136553.07774",    0,   48,  137447,"AIS","B1","B1","B1","B1","PISd",0,0,0,0,"B1", 0,15,   0, 0,    0,"AIS","N/A    ","OK ","OK ",    000404.856,    0017.412,    0092.125,    0015.045,    0061.613
"FRM_AIS_EDR_2074.DAT           ",2005-08-26T11:42:45.78 ,"1/0073136560.43374",    0,   49,  137447,"AIS","B1","B1","B1","B1","PISd",0,0,0,0,"B1", 0,15,   0, 0,    0,"AIS","N/A    ","OK ","OK ",    000409.674,    0017.882,    0092.125,    0015.047,    0061.956
"FRM_AIS_EDR_2074.DAT           ",2005-08-26T11:42:53.32 ,"1/0073136568.13437",    0,   50,  137447,"AIS","B1","B1","B1","B1","PISd",0,0,0,0,"B1", 0,15,   0, 0,    0,"AIS","N/A    ","OK ","OK ",    000414.582,    0018.351,    0092.125,    0015.049,    0062.299
"FRM_AIS_EDR_2074.DAT           ",2005-08-26T11:43:00.86 ,"1/0073136575.49036",    0,   51,  137447,"AIS","B1","B1","B1","B1","PISd",0,0,0,0,"B1", 0,15,   0, 0,    0,"AIS","N/A    ","OK ","OK ",    000419.579,    0018.819,    0092.125,    0015.051,    0062.642
"FRM_AIS_EDR_2074.DAT           ",2005-08-26T11:43:08.41 ,"1/0073136583.19100",    0,   52,  137447,"AIS","B1","B1","B1","B1","PISd",0,0,0,0,"B1", 0,15,   0, 0,    0,"AIS","N/A    ","OK ","OK ",    000424.664,    0019.285,    0092.126,    0015.053,    0062.985
"FRM_AIS_EDR_2074.DAT           ",2005-08-26T11:43:15.95 ,"1/0073136590.54699",    0,   53,  137447,"AIS","B1","B1","B1","B1","PISd",0,0,0,0,"B1", 0,15,   0, 0,    0,"AIS","N/A    ","OK ","OK ",    000429.838,    0019.751,    0092.126,    0015.055,    0063.328
"FRM_AIS_EDR_2074.DAT           ",2005-08-26T11:43:23.49 ,"1/0073136598.24762",    0,   54,  137447,"AIS","B1","B1","B1","B1","PISd",0,0,0,0,"B1", 0,15,   0, 0,    0,"AIS","N/A    ","OK ","OK ",    000435.099,    0020.215,    0092.126,    0015.057,    0063.671
"FRM_AIS_EDR_2074.DAT           ",2005-08-26T11:43:31.04 ,"1/0073136605.60362",    0,   55,  137447,"AIS","B1","B1","B1","B1","PISd",0,0,0,0,"B1", 0,15,   0, 0,    0,"AIS","N/A    ","OK ","OK ",    000440.446,    0020.678,    0092.127,    0015.059,    0064.014
"FRM_AIS_EDR_2074.DAT           ",2005-08-26T11:43:38.58 ,"1/0073136613.30425",    0,   56,  137447,"AIS","B1","B1","B1","B1","PISd",0,0,0,0,"B1", 0,15,   0, 0,    0,"AIS","N/A    ","OK ","OK ",    000445.880,    0021.139,    0092.127,    0015.062,    0064.357
"FRM_AIS_EDR_2074.DAT           ",2005-08-26T11:43:46.12 ,"1/0073136621.00488",    0,   57,  137447,"AIS","B1","B1","B1","B1","PISd",0,0,0,0,"B1", 0,15,   0, 0,    0,"AIS","N/A    ","OK ","OK ",    000451.399,    0021.599,    0092.128,    0015.064,    0064.699
"FRM_AIS_EDR_2074.DAT           ",2005-08-26T11:43:53.67 ,"1/0073136628.36088",    0,   58,  137447,"AIS","B1","B1","B1","B1","PISd",0,0,0,0,"B1", 0,15,   0, 0,    0,"AIS","N/A    ","OK ","OK ",    000457.003,    0022.058,    0092.129,    0015.066,    0065.042
"FRM_AIS_EDR_2074.DAT           ",2005-08-26T11:44:01.21 ,"1/0073136636.06151",    0,   59,  137447,"AIS","B1","B1","B1","B1","PISd",0,0,0,0,"B1", 0,15,   0, 0,    0,"AIS","N/A    ","OK ","OK ",    000462.691,    0022.516,    0092.130,    0015.068,    0065.384
"FRM_AIS_EDR_2074.DAT           ",2005-08-26T11:44:08.75 ,"1/0073136643.41750",    0,   60,  137447,"AIS","B1","B1","B1","B1","PISd",0,0,0,0,"B1", 0,15,   0, 0,    0,"AIS","N/A    ","OK ","OK ",    000468.463,    0022.972,    0092.131,    0015.070,    0065.726
"FRM_AIS_EDR_2074.DAT           ",2005-08-26T11:44:16.30 ,"1/0073136651.11813",    0,   61,  137447,"AIS","B1","B1","B1","B1","PISd",0,0,0,0,"B1", 0,15,   0, 0,    0,"AIS","N/A    ","OK ","OK ",    000474.317,    0023.427,    0092.132,    0015.072,    0066.067
"FRM_AIS_EDR_2074.DAT           ",2005-08-26T11:44:23.84 ,"1/0073136658.47413",    0,   62,  137447,"AIS","B1","B1","B1","B1","PISd",0,0,0,0,"B1", 0,15,   0, 0,    0,"AIS","N/A    ","OK ","OK ",    000480.254,    0023.881,    0092.133,    0015.074,    0066.408
"FRM_AIS_EDR_2074.DAT           ",2005-08-26T11:44:31.38 ,"1/0073136666.17476",    0,   63,  137447,"AIS","B1","B1","B1","B1","PISd",0,0,0,0,"B1", 0,15,   0, 0,    0,"AIS","N/A    ","OK ","OK ",    000486.273,    0024.333,    0092.135,    0015.076,    0066.749
"FRM_AIS_EDR_2074.DAT           ",2005-08-26T11:44:38.93 ,"1/0073136673.53075",    0,   64,  137447,"AIS","B1","B1","B1","B1","PISd",0,0,0,0,"B1", 0,15,   0, 0,    0,"AIS","N/A    ","OK ","OK ",    000492.372,    0024.784,    0092.136,    0015.078,    0067.089
"FRM_AIS_EDR_2074.DAT           ",2005-08-26T11:44:46.47 ,"1/0073136681.23139",    0,   65,  137447,"AIS","B1","B1","B1","B1","PISd",0,0,0,0,"B1", 0,15,   0, 0,    0,"AIS","N/A    ","OK ","OK ",    000498.552,    0025.233,    0092.138,    0015.081,    0067.429
"FRM_AIS_EDR_2074.DAT           ",2005-08-26T11:44:54.01 ,"1/0073136688.58738",    0,   66,  137447,"AIS","B1","B1","B1","B1","PISd",0,0,0,0,"B1", 0,15,   0, 0,    0,"AIS","N/A    ","OK ","OK ",    000504.811,    0025.681,    0092.140,    0015.083,    0067.769
"FRM_AIS_EDR_2074.DAT           ",2005-08-26T11:45:01.56 ,"1/0073136696.28801",    0,   67,  137447,"AIS","B1","B1","B1","B1","PISd",0,0,0,0,"B1", 0,15,   0, 0,    0,"AIS","N/A    ","OK ","OK ",    000511.150,    0026.127,    0092.142,    0015.085,    0068.108
"FRM_AIS_EDR_2074.DAT           ",2005-08-26T11:45:09.10 ,"1/0073136703.64401",    0,   68,  137447,"AIS","B1","B1","B1","B1","PISd",0,0,0,0,"B1", 0,15,   0, 0,    0,"AIS","N/A    ","OK ","OK ",    000517.566,    0026.573,    0092.144,    0015.087,    0068.446
"FRM_AIS_EDR_2074.DAT           ",2005-08-26T11:45:16.64 ,"1/0073136711.34464",    0,   69,  137447,"AIS","B1","B1","B1","B1","PISd",0,0,0,0,"B1", 0,15,   0, 0,    0,"AIS","N/A    ","OK ","OK ",    000524.060,    0027.016,    0092.146,    0015.089,    0068.784
"FRM_AIS_EDR_2074.DAT           ",2005-08-26T11:45:24.19 ,"1/0073136719.04527",    0,   70,  137447,"AIS","B1","B1","B1","B1","PISd",0,0,0,0,"B1", 0,15,   0, 0,    0,"AIS","N/A    ","OK ","OK ",    000530.632,    0027.458,    0092.148,    0015.091,    0069.122
"FRM_AIS_EDR_2074.DAT           ",2005-08-26T11:45:31.73 ,"1/0073136726.40127",    0,   71,  137447,"AIS","B1","B1","B1","B1","PISd",0,0,0,0,"B1", 0,15,   0, 0,    0,"AIS","N/A    ","OK ","OK ",    000537.279,    0027.899,    0092.151,    0015.094,    0069.458
"FRM_AIS_EDR_2074.DAT           ",2005-08-26T11:45:39.27 ,"1/0073136734.10190",    0,   72,  137447,"AIS","B1","B1","B1","B1","PISd",0,0,0,0,"B1", 0,15,   0, 0,    0,"AIS","N/A    ","OK ","OK ",    000544.002,    0028.338,    0092.154,    0015.096,    0069.794
"FRM_AIS_EDR_2074.DAT           ",2005-08-26T11:45:46.81 ,"1/0073136741.45789",    0,   73,  137447,"AIS","B1","B1","B1","B1","PISd",0,0,0,0,"B1", 0,15,   0, 0,    0,"AIS","N/A    ","OK ","OK ",    000550.800,    0028.776,    0092.156,    0015.098,    0070.130
"FRM_AIS_EDR_2074.DAT           ",2005-08-26T11:45:54.36 ,"1/0073136749.15853",    0,   74,  137447,"AIS","B1","B1","B1","B1","PISd",0,0,0,0,"B1", 0,15,   0, 0,    0,"AIS","N/A    ","OK ","OK ",    000557.672,    0029.212,    0092.159,    0015.100,    0070.465
"FRM_AIS_EDR_2074.DAT           ",2005-08-26T11:46:01.90 ,"1/0073136756.51452",    0,   75,  137447,"AIS","B1","B1","B1","B1","PISd",0,0,0,0,"B1", 0,15,   0, 0,    0,"AIS","N/A    ","OK ","OK ",    000564.617,    0029.647,    0092.163,    0015.102,    0070.799
"FRM_AIS_EDR_2074.DAT           ",2005-08-26T11:46:09.44 ,"1/0073136764.21515",    0,   76,  137447,"AIS","B1","B1","B1","B1","PISd",0,0,0,0,"B1", 0,15,   0, 0,    0,"AIS","N/A    ","OK ","OK ",    000571.636,    0030.080,    0092.166,    0015.105,    0071.132
"FRM_AIS_EDR_2074.DAT           ",2005-08-26T11:46:16.99 ,"1/0073136771.57115",    0,   77,  137447,"AIS","B1","B1","B1","B1","PISd",0,0,0,0,"B1", 0,15,   0, 0,    0,"AIS","N/A    ","OK ","OK ",    000578.726,    0030.512,    0092.170,    0015.107,    0071.465
"FRM_AIS_EDR_2074.DAT           ",2005-08-26T11:46:24.53 ,"1/0073136779.27178",    0,   78,  137447,"AIS","B1","B1","B1","B1","PISd",0,0,0,0,"B1", 0,15,   0, 0,    0,"AIS","N/A    ","OK ","OK ",    000585.888,    0030.942,    0092.173,    0015.109,    0071.797
"FRM_AIS_EDR_2074.DAT           ",2005-08-26T11:46:32.07 ,"1/0073136786.62777",    0,   79,  137447,"AIS","B1","B1","B1","B1","PISd",0,0,0,0,"B1", 0,15,   0, 0,    0,"AIS","N/A    ","OK ","OK ",    000593.121,    0031.371,    0092.177,    0015.112,    0072.128
"FRM_AIS_EDR_2074.DAT           ",2005-08-26T11:46:39.62 ,"1/0073136794.32841",    0,   80,  137447,"AIS","B1","B1","B1","B1","PISd",0,0,0,0,"B1", 0,15,   0, 0,    0,"AIS","N/A    ","OK ","OK ",    000600.424,    0031.798,    0092.181,    0015.114,    0072.458
"FRM_AIS_EDR_2074.DAT           ",2005-08-26T11:46:47.16 ,"1/0073136802.02904",    0,   81,  137447,"AIS","B1","B1","B1","B1","PISd",0,0,0,0,"B1", 0,15,   0, 0,    0,"AIS","N/A    ","OK ","OK ",    000607.796,    0032.223,    0092.186,    0015.116,    0072.787
"FRM_AIS_EDR_2074.DAT           ",2005-08-26T11:46:54.70 ,"1/0073136809.38503",    0,   82,  137447,"AIS","B1","B1","B1","B1","PISd",0,0,0,0,"B1", 0,15,   0, 0,    0,"AIS","N/A    ","OK ","OK ",    000615.237,    0032.647,    0092.190,    0015.119,    0073.116
"FRM_AIS_EDR_2074.DAT           ",2005-08-26T11:47:02.25 ,"1/0073136817.08567",    0,   83,  137447,"AIS","B1","B1","B1","B1","PISd",0,0,0,0,"B1", 0,15,   0, 0,    0,"AIS","N/A    ","OK ","OK ",    000622.746,    0033.069,    0092.195,    0015.121,    0073.444
"FRM_AIS_EDR_2074.DAT           ",2005-08-26T11:47:09.79 ,"1/0073136824.44166",    0,   84,  137447,"AIS","B1","B1","B1","B1","PISd",0,0,0,0,"B1", 0,15,   0, 0,    0,"AIS","N/A    ","OK ","OK ",    000630.322,    0033.490,    0092.200,    0015.123,    0073.770
"FRM_AIS_EDR_2074.DAT           ",2005-08-26T11:47:17.33 ,"1/0073136832.14229",    0,   85,  137447,"AIS","B1","B1","B1","B1","PISd",0,0,0,0,"B1", 0,15,   0, 0,    0,"AIS","N/A    ","OK ","OK ",    000637.965,    0033.910,    0092.205,    0015.126,    0074.096
"FRM_AIS_EDR_2074.DAT           ",2005-08-26T11:47:24.88 ,"1/0073136839.49829",    0,   86,  137447,"AIS","B1","B1","B1","B1","PISd",0,0,0,0,"B1", 0,15,   0, 0,    0,"AIS","N/A    ","OK ","OK ",    000645.674,    0034.327,    0092.210,    0015.128,    0074.421
"FRM_AIS_EDR_2074.DAT           ",2005-08-26T11:47:32.42 ,"1/0073136847.19892",    0,   87,  137447,"AIS","B1","B1","B1","B1","PISd",0,0,0,0,"B1", 0,15,   0, 0,    0,"AIS","N/A    ","OK ","OK ",    000653.448,    0034.743,    0092.216,    0015.131,    0074.745
"FRM_AIS_EDR_2074.DAT           ",2005-08-26T11:47:39.96 ,"1/0073136854.55491",    0,   88,  137447,"AIS","B1","B1","B1","B1","PISd",0,0,0,0,"B1", 0,15,   0, 0,    0,"AIS","N/A    ","OK ","OK ",    000661.287,    0035.158,    0092.222,    0015.133,    0075.068
"FRM_AIS_EDR_2074.DAT           ",2005-08-26T11:47:47.51 ,"1/0073136862.25555",    0,   89,  137447,"AIS","B1","B1","B1","B1","PISd",0,0,0,0,"B1", 0,15,   0, 0,    0,"AIS","N/A    ","OK ","OK ",    000669.189,    0035.571,    0092.228,    0015.136,    0075.391
"FRM_AIS_EDR_2074.DAT           ",2005-08-26T11:47:55.05 ,"1/0073136869.61154",    0,   90,  137447,"AIS","B1","B1","B1","B1","PISd",0,0,0,0,"B1", 0,15,   0, 0,    0,"AIS","N/A    ","OK ","OK ",    000677.155,    0035.982,    0092.234,    0015.138,    0075.712